Du Bois, PA

12:14 PM EDT on July 27, 2017 (GMT -0400)
Du Bois-Jefferson County

Weather History for KDUJ - September, 2011

Change the Weather History Date:

Saturday, September 10, 2011

  Actual Average Record
Temperature  
Mean Temperature 68 °F 62 °F  
Max Temperature 75 °F 72 °F 89 °F (1964)
Min Temperature 60 °F 52 °F 38 °F (1975)
Degree Days  
Heating Degree Days 0 4  
Month to date heating degree days 31  
Since 1 July heating degree days 93  
Cooling Degree Days 2 1  
Month to date cooling degree days 17  
Year to date cooling degree days 348  
Growing Degree Days 18 (Base 50)    
Moisture  
Dew Point 60 °F    
Average Humidity 88    
Maximum Humidity 100    
Minimum Humidity 48    
Precipitation  
Precipitation 0.06 in 0.13 in 0.92 in (1968)
Month to date precipitation 1.28  
Sea Level Pressure  
Sea Level Pressure 29.98 in    
Wind  
Wind Speed 3 mph (WNW)    
Max Wind Speed 12 mph    
Max Gust Speed -    
Visibility 8 miles    
Events Rain    
T = Trace of Precipitation, MM = Missing Value Source: NWS Daily Summary

Daily Weather History Graph

Daily Weather History Graph

Search for Another Location

Airport or City:

Trip Planner

Search our weather history database for the weather conditions in past years. The results will help you decide how hot, cold, wet, or windy it might be!

Date:

Astronomy

Sep. 10, 2011 Rise Set
Actual Time 6:50 AM EDT 7:33 PM EDT
Civil Twilight 6:22 AM EDT 8:01 PM EDT
Nautical Twilight 5:49 AM EDT 8:34 PM EDT
Astronomical Twilight 5:15 AM EDT 9:08 PM EDT
Moon 6:27 PM EDT (9/10) 5:08 AM EDT (9/10)
Length of Visible Light 13h 38m
Length of Day
12h 42m
Waxing Gibbous, 97% of the Moon is Illuminated
Sep 10
Waxing Gibbous
Sep 12
Full
Sep 20
Last Quarter
Sep 27
New
Oct 3
First Quarter

Hourly Weather History & Observations

Time (EDT) Temp. Dew Point Humidity Pressure Visibility Wind Dir Wind Speed Gust Speed Precip Events Conditions
12:10 AM 62.6 °F 60.8 °F 94% 29.94 in 10.0 mi NNE 3.5 mph - 0.01 in Rain Light Rain
12:41 AM 62.6 °F 60.8 °F 94% 29.95 in 9.0 mi West 3.5 mph - 0.02 in Rain Light Rain
12:56 AM 62.1 °F 60.1 °F 93% 29.92 in 10.0 mi West 6.9 mph - 0.03 in Rain Light Rain
1:05 AM 62.6 °F 60.8 °F 94% 29.94 in 10.0 mi WSW 4.6 mph - 0.00 in   Overcast
1:14 AM 62.6 °F 60.8 °F 94% 29.95 in 9.0 mi SSW 5.8 mph - 0.00 in   Overcast
1:27 AM 62.6 °F 60.8 °F 94% 29.95 in 8.0 mi West 3.5 mph - 0.00 in   Overcast
1:56 AM 62.1 °F 59.0 °F 90% 29.94 in 10.0 mi North 5.8 mph - 0.00 in   Scattered Clouds
2:56 AM 61.0 °F 59.0 °F 93% 29.93 in 10.0 mi WNW 3.5 mph - N/A   Overcast
3:56 AM 62.1 °F 60.1 °F 93% 29.93 in 10.0 mi NE 3.5 mph - N/A   Overcast
4:56 AM 61.0 °F 60.1 °F 97% 29.94 in 7.0 mi WSW 4.6 mph - N/A   Overcast
5:56 AM 62.1 °F 60.1 °F 93% 29.94 in 10.0 mi Calm Calm - N/A   Overcast
6:33 AM 62.6 °F 60.8 °F 94% 29.97 in 3.0 mi Calm Calm - N/A   Overcast
6:38 AM 60.8 °F 60.8 °F 100% 29.97 in 1.8 mi Calm Calm - N/A   Overcast
6:50 AM 60.8 °F 60.8 °F 100% 29.98 in 3.0 mi Calm Calm - 0.00 in Rain Light Rain
6:56 AM 61.0 °F 60.1 °F 97% 29.95 in 3.0 mi Calm Calm - 0.02 in Rain Light Rain
7:04 AM 62.6 °F 60.8 °F 94% 29.98 in 1.8 mi Calm Calm - 0.07 in Rain Heavy Rain
7:13 AM 62.6 °F 60.8 °F 94% 29.98 in 1.2 mi ENE 4.6 mph - 0.16 in Rain Rain
7:21 AM 62.6 °F 60.8 °F 94% 29.98 in 1.2 mi NE 4.6 mph - 0.25 in Rain Heavy Rain
7:26 AM 62.6 °F 60.8 °F 94% 29.98 in 0.8 mi NE 5.8 mph - 0.37 in Rain Heavy Rain
7:43 AM 62.6 °F 60.8 °F 94% 29.98 in 1.0 mi East 3.5 mph - 0.70 in Rain Rain
7:49 AM 62.6 °F 60.8 °F 94% 29.99 in 3.0 mi Calm Calm - 0.72 in Rain Light Rain
7:56 AM 62.6 °F 60.8 °F 94% 29.98 in 4.0 mi Calm Calm - N/A Rain Light Rain
8:18 AM 62.6 °F 60.8 °F 94% 29.98 in 10.0 mi Calm Calm - 0.01 in Rain Light Rain
8:56 AM 63.0 °F 60.1 °F 90% 29.97 in 10.0 mi Calm Calm - 0.01 in   Overcast
9:41 AM 62.6 °F 60.8 °F 94% 30.01 in 10.0 mi SW 4.6 mph - 0.00 in   Overcast
9:56 AM 63.0 °F 61.0 °F 93% 30.00 in 10.0 mi SW 4.6 mph - 0.00 in   Overcast
10:26 AM 62.6 °F 60.8 °F 94% 30.03 in 10.0 mi WSW 5.8 mph - 0.00 in Rain Light Rain
10:40 AM 62.6 °F 60.8 °F 94% 30.03 in 7.0 mi Calm Calm - 0.01 in Rain Light Rain
10:56 AM 64.4 °F 60.8 °F 88% 30.03 in 10.0 mi NNW 6.9 mph - N/A   Mostly Cloudy
11:07 AM 64.4 °F 62.6 °F 94% 30.03 in 10.0 mi NNW 4.6 mph - N/A   Scattered Clouds
11:56 AM 69.1 °F 62.1 °F 78% 30.00 in 10.0 mi NNW 4.6 mph - N/A   Scattered Clouds
12:41 PM 68.0 °F 62.6 °F 83% 30.03 in 10.0 mi West 6.9 mph - N/A   Overcast
12:56 PM 66.9 °F 61.0 °F 81% 30.01 in 10.0 mi WSW 11.5 mph - N/A   Overcast
1:56 PM 69.8 °F 60.8 °F 73% 30.02 in 10.0 mi WNW 6.9 mph - N/A   Overcast
2:56 PM 71.1 °F 59.0 °F 66% 29.99 in 10.0 mi NNW 4.6 mph - N/A   Overcast
3:56 PM 73.0 °F 57.0 °F 57% 29.97 in 10.0 mi Calm Calm - N/A   Mostly Cloudy
4:56 PM 75.9 °F 55.0 °F 48% 29.97 in 10.0 mi Calm Calm - N/A   Clear
5:56 PM 73.4 °F 59.0 °F 61% 30.00 in 10.0 mi Calm Calm - N/A   Scattered Clouds
6:41 PM 71.6 °F 60.8 °F 69% 30.01 in 10.0 mi South 3.5 mph - N/A   Mostly Cloudy
6:56 PM 70.0 °F 62.1 °F 76% 29.99 in 10.0 mi Calm Calm - N/A   Mostly Cloudy
7:56 PM 64.9 °F 60.1 °F 84% 30.01 in 10.0 mi Calm Calm - N/A   Mostly Cloudy
8:56 PM 62.6 °F 60.8 °F 94% 30.04 in 10.0 mi Calm Calm - N/A   Partly Cloudy
9:56 PM 63.0 °F 59.0 °F 87% 30.04 in 10.0 mi Calm Calm - N/A   Partly Cloudy
10:56 PM 60.1 °F 59.0 °F 96% 30.05 in 10.0 mi Calm Calm - N/A   Partly Cloudy
11:56 PM 61.0 °F 59.0 °F 93% 30.04 in 10.0 mi ENE 3.5 mph - N/A   Partly Cloudy